datetime,release volume
2003-10-01,18.4
2003-10-02,18.3
2003-10-03,18.3
2003-10-04,18.1
2003-10-05,17.9
2003-10-06,17.8
2003-10-07,17.8
2003-10-08,17.5
2003-10-09,17.4
2003-10-10,17.2
2003-10-11,17.1
2003-10-12,16.9
2003-10-13,16.7
2003-10-14,16.6
2003-10-15,7.1
2003-10-16,0.0
2003-10-17,0.0
2003-10-18,0.0
2003-10-19,0.0
2003-10-20,0.0
2003-10-21,0.0
2003-10-22,0.0
2003-10-23,0.0
2003-10-24,0.0
2003-10-25,0.0
2003-10-26,0.0
2003-10-27,0.0
2003-10-28,0.0
2003-10-29,0.0
2003-10-30,0.0
2003-10-31,0.0
2003-11-01,0.0
2003-11-02,0.0
2003-11-03,0.0
2003-11-04,0.0
2003-11-05,0.0
2003-11-06,0.0
2003-11-07,0.0
2003-11-08,0.0
2003-11-09,0.0
2003-11-10,0.0
2003-11-11,0.0
2003-11-12,0.0
2003-11-13,0.0
2003-11-14,0.0
2003-11-15,0.0
2003-11-16,0.0
2003-11-17,0.0
2003-11-18,0.0
2003-11-19,0.0
2003-11-20,0.0
2003-11-21,0.0
2003-11-22,0.0
2003-11-23,0.0
2003-11-24,0.0
2003-11-25,0.0
2003-11-26,0.0
2003-11-27,0.0
2003-11-28,0.0
2003-11-29,0.0
2003-11-30,0.0
2003-12-01,0.0
2003-12-02,0.0
2003-12-03,0.0
2003-12-04,0.0
2003-12-05,0.0
2003-12-06,0.0
2003-12-07,0.0
2003-12-08,0.0
2003-12-09,0.0
2003-12-10,0.0
2003-12-11,0.0
2003-12-12,0.0
2003-12-13,0.0
2003-12-14,0.0
2003-12-15,0.0
2003-12-16,0.0
2003-12-17,0.0
2003-12-18,0.0
2003-12-19,0.0
2003-12-20,0.0
2003-12-21,0.0
2003-12-22,0.0
2003-12-23,0.0
2003-12-24,0.0
2003-12-25,0.0
2003-12-26,0.0
2003-12-27,0.0
2003-12-28,0.0
2003-12-29,0.0
2003-12-30,0.0
2003-12-31,0.0
2004-01-01,0.0
2004-01-02,0.0
2004-01-03,0.0
2004-01-04,0.0
2004-01-05,0.0
2004-01-06,0.0
2004-01-07,0.0
2004-01-08,0.0
2004-01-09,0.0
2004-01-10,0.0
2004-01-11,0.0
2004-01-12,0.0
2004-01-13,0.0
2004-01-14,0.0
2004-01-15,0.0
2004-01-16,0.0
2004-01-17,0.0
2004-01-18,0.0
2004-01-19,0.0
2004-01-20,0.0
2004-01-21,0.0
2004-01-22,0.0
2004-01-23,0.0
2004-01-24,0.0
2004-01-25,0.0
2004-01-26,0.0
2004-01-27,0.0
2004-01-28,0.0
2004-01-29,0.0
2004-01-30,0.0
2004-01-31,0.0
2004-02-01,0.0
2004-02-02,0.0
2004-02-03,0.0
2004-02-04,0.0
2004-02-05,0.0
2004-02-06,0.0
2004-02-07,0.0
2004-02-08,0.0
2004-02-09,0.0
2004-02-10,0.0
2004-02-11,0.0
2004-02-12,0.0
2004-02-13,0.0
2004-02-14,0.0
2004-02-15,0.0
2004-02-16,0.0
2004-02-17,0.0
2004-02-18,0.0
2004-02-19,0.0
2004-02-20,0.0
2004-02-21,0.0
2004-02-22,0.0
2004-02-23,0.0
2004-02-24,0.0
2004-02-25,0.0
2004-02-26,0.0
2004-02-27,0.0
2004-02-28,0.0
2004-02-29,0.0
2004-03-01,0.0
2004-03-02,0.0
2004-03-03,0.0
2004-03-04,0.0
2004-03-05,0.0
2004-03-06,0.0
2004-03-07,0.0
2004-03-08,0.0
2004-03-09,0.0
2004-03-10,0.0
2004-03-11,0.0
2004-03-12,0.0
2004-03-13,0.0
2004-03-14,0.0
2004-03-15,0.0
2004-03-16,0.0
2004-03-17,0.0
2004-03-18,0.0
2004-03-19,0.0
2004-03-20,0.0
2004-03-21,0.0
2004-03-22,0.0
2004-03-23,0.0
2004-03-24,0.0
2004-03-25,0.0
2004-03-26,0.0
2004-03-27,0.0
2004-03-28,0.0
2004-03-29,0.0
2004-03-30,0.0
2004-03-31,0.0
2004-04-01,0.0
2004-04-02,0.0
2004-04-03,0.0
2004-04-04,0.0
2004-04-05,0.0
2004-04-06,0.0
2004-04-07,0.0
2004-04-08,0.0
2004-04-09,0.0
2004-04-10,0.0
2004-04-11,0.0
2004-04-12,0.0
2004-04-13,0.0
2004-04-14,0.0
2004-04-15,0.0
2004-04-16,0.0
2004-04-17,0.0
2004-04-18,0.0
2004-04-19,0.0
2004-04-20,0.0
2004-04-21,0.0
2004-04-22,0.0
2004-04-23,0.0
2004-04-24,0.0
2004-04-25,0.0
2004-04-26,0.0
2004-04-27,0.0
2004-04-28,0.0
2004-04-29,0.0
2004-04-30,0.0
2004-05-01,0.0
2004-05-02,0.0
2004-05-03,0.0
2004-05-04,0.0
2004-05-05,0.0
2004-05-06,0.0
2004-05-07,0.0
2004-05-08,0.0
2004-05-09,0.0
2004-05-10,0.0
2004-05-11,10.59
2004-05-12,24.89
2004-05-13,36.0
2004-05-14,37.18
2004-05-15,28.83
2004-05-16,17.9
2004-05-17,17.88
2004-05-18,17.84
2004-05-19,22.87
2004-05-20,29.3
2004-05-21,29.26
2004-05-22,28.97
2004-05-23,28.69
2004-05-24,28.67
2004-05-25,28.61
2004-05-26,28.65
2004-05-27,28.65
2004-05-28,22.16
2004-05-29,19.21
2004-05-30,19.23
2004-05-31,19.13
2004-06-01,19.13
2004-06-02,23.23
2004-06-03,27.36
2004-06-04,36.04
2004-06-05,46.59
2004-06-06,49.4
2004-06-07,49.38
2004-06-08,42.81
2004-06-09,31.7
2004-06-10,22.73
2004-06-11,18.73
2004-06-12,18.75
2004-06-13,18.73
2004-06-14,12.67
2004-06-15,7.88
2004-06-16,7.88
2004-06-17,7.86
2004-06-18,7.88
2004-06-19,7.88
2004-06-20,7.86
2004-06-21,7.88
2004-06-22,7.88
2004-06-23,7.88
2004-06-24,7.88
2004-06-25,7.9
2004-06-26,7.92
2004-06-27,7.98
2004-06-28,3.88
2004-06-29,0.0
2004-06-30,0.0
2004-07-01,0.0
2004-07-02,0.0
2004-07-03,0.0
2004-07-04,0.0
2004-07-05,0.0
2004-07-06,0.0
2004-07-07,0.0
2004-07-08,0.0
2004-07-09,0.0
2004-07-10,0.0
2004-07-11,0.0
2004-07-12,0.0
2004-07-13,0.0
2004-07-14,0.0
2004-07-15,0.0
2004-07-16,0.0
2004-07-17,0.0
2004-07-18,0.0
2004-07-19,0.0
2004-07-20,0.0
2004-07-21,0.0
2004-07-22,0.0
2004-07-23,0.0
2004-07-24,0.0
2004-07-25,16.06
2004-07-26,23.94
2004-07-27,22.16
2004-07-28,21.23
2004-07-29,21.17
2004-07-30,27.4
2004-07-31,29.96
2004-08-01,29.74
2004-08-02,29.3
2004-08-03,29.13
2004-08-04,28.77
2004-08-05,28.49
2004-08-06,28.2
2004-08-07,27.46
2004-08-08,27.26
2004-08-09,27.07
2004-08-10,26.79
2004-08-11,26.55
2004-08-12,26.29
2004-08-13,25.98
2004-08-14,25.82
2004-08-15,25.56
2004-08-16,25.32
2004-08-17,25.11
2004-08-18,25.05
2004-08-19,24.79
2004-08-20,24.49
2004-08-21,24.26
2004-08-22,24.02
2004-08-23,10.3
2004-08-24,4.28
2004-08-25,4.34
2004-08-26,4.34
2004-08-27,4.4
2004-08-28,4.44
2004-08-29,4.44
2004-08-30,4.46
2004-08-31,4.49
2004-09-01,4.53
2004-09-02,4.59
2004-09-03,4.65
2004-09-04,4.71
2004-09-05,4.83
2004-09-06,4.83
2004-09-07,4.85
2004-09-08,4.95
2004-09-09,4.99
2004-09-10,5.03
2004-09-11,5.07
2004-09-12,5.11
2004-09-13,5.19
2004-09-14,5.25
2004-09-15,5.33
2004-09-16,5.31
2004-09-17,5.35
2004-09-18,5.43
2004-09-19,5.54
2004-09-20,5.6
2004-09-21,5.7
2004-09-22,5.8
2004-09-23,5.9
2004-09-24,5.96
2004-09-25,6.02
2004-09-26,6.02
2004-09-27,5.94
2004-09-28,6.0
2004-09-29,6.02
2004-09-30,6.0
2004-10-01,6.0
2004-10-02,6.16
2004-10-03,6.22
2004-10-04,6.28
2004-10-05,6.3
2004-10-06,6.3
2004-10-07,4.61
2004-10-08,0.0
2004-10-09,0.0
2004-10-10,0.0
2004-10-11,0.0
2004-10-12,0.0
2004-10-13,0.0
2004-10-14,0.0
2004-10-15,0.0
2004-10-16,0.0
2004-10-17,0.0
2004-10-18,0.0
2004-10-19,0.0
2004-10-20,0.0
2004-10-21,0.0
2004-10-22,0.0
2004-10-23,0.0
2004-10-24,0.0
2004-10-25,0.0
2004-10-26,0.0
2004-10-27,0.0
2004-10-28,0.0
2004-10-29,0.0
2004-10-30,0.0
2004-10-31,0.0
2004-11-01,0.0
2004-11-02,0.0
2004-11-03,0.0
2004-11-04,0.0
2004-11-05,0.0
2004-11-06,0.0
2004-11-07,0.0
2004-11-08,0.0
2004-11-09,0.0
2004-11-10,0.0
2004-11-11,0.0
2004-11-12,0.0
2004-11-13,0.0
2004-11-14,0.0
2004-11-15,0.0
2004-11-16,0.0
2004-11-17,0.0
2004-11-18,0.0
2004-11-19,0.0
2004-11-20,0.0
2004-11-21,0.0
2004-11-22,0.0
2004-11-23,0.0
2004-11-24,0.0
2004-11-25,0.0
2004-11-26,0.0
2004-11-27,0.0
2004-11-28,0.0
2004-11-29,0.0
2004-11-30,0.0
2004-12-01,0.0
2004-12-02,0.0
2004-12-03,0.0
2004-12-04,0.0
2004-12-05,0.0
2004-12-06,0.0
2004-12-07,0.0
2004-12-08,0.0
2004-12-09,0.0
2004-12-10,0.0
2004-12-11,0.0
2004-12-12,0.0
2004-12-13,0.0
2004-12-14,0.0
2004-12-15,0.0
2004-12-16,0.0
2004-12-17,0.0
2004-12-18,0.0
2004-12-19,0.0
2004-12-20,0.0
2004-12-21,0.0
2004-12-22,0.0
2004-12-23,0.0
2004-12-24,0.0
2004-12-25,0.0
2004-12-26,0.0
2004-12-27,0.0
2004-12-28,0.0
2004-12-29,0.0
2004-12-30,0.0
2004-12-31,0.0
2005-01-01,0.0
2005-01-02,0.0
2005-01-03,0.0
2005-01-04,0.0
2005-01-05,0.0
2005-01-06,0.0
2005-01-07,0.0
2005-01-08,0.0
2005-01-09,0.0
2005-01-10,0.0
2005-01-11,0.0
2005-01-12,0.0
2005-01-13,0.0
2005-01-14,0.0
2005-01-15,0.0
2005-01-16,0.0
2005-01-17,0.0
2005-01-18,0.0
2005-01-19,0.0
2005-01-20,0.0
2005-01-21,0.0
2005-01-22,0.0
2005-01-23,0.0
2005-01-24,0.0
2005-01-25,0.0
2005-01-26,0.0
2005-01-27,0.0
2005-01-28,0.0
2005-01-29,0.0
2005-01-30,0.0
2005-01-31,0.0
2005-02-01,0.0
2005-02-02,0.0
2005-02-03,0.0
2005-02-04,0.0
2005-02-05,0.0
2005-02-06,0.0
2005-02-07,0.0
2005-02-08,0.0
2005-02-09,0.0
2005-02-10,0.0
2005-02-11,0.0
2005-02-12,0.0
2005-02-13,0.0
2005-02-14,0.0
2005-02-15,0.0
2005-02-16,0.0
2005-02-17,0.0
2005-02-18,0.0
2005-02-19,0.0
2005-02-20,0.0
2005-02-21,0.0
2005-02-22,0.0
2005-02-23,0.0
2005-02-24,0.0
2005-02-25,0.0
2005-02-26,0.0
2005-02-27,0.0
2005-02-28,0.0
2005-03-01,0.0
2005-03-02,0.0
2005-03-03,0.0
2005-03-04,0.0
2005-03-05,0.0
2005-03-06,0.0
2005-03-07,0.0
2005-03-08,0.0
2005-03-09,0.0
2005-03-10,0.0
2005-03-11,0.0
2005-03-12,0.0
2005-03-13,0.0
2005-03-14,0.0
2005-03-15,0.0
2005-03-16,0.0
2005-03-17,0.0
2005-03-18,0.0
2005-03-19,0.0
2005-03-20,0.0
2005-03-21,0.0
2005-03-22,0.0
2005-03-23,0.0
2005-03-24,0.0
2005-03-25,0.0
2005-03-26,0.0
2005-03-27,0.0
2005-03-28,0.0
2005-03-29,0.0
2005-03-30,0.0
2005-03-31,0.0
2005-04-01,0.0
2005-04-02,0.0
2005-04-03,0.0
2005-04-04,0.0
2005-04-05,0.0
2005-04-06,1.63
2005-04-07,4.31
2005-04-08,8.26
2005-04-09,9.03
2005-04-10,16.47
2005-04-11,17.65
2005-04-12,23.45
2005-04-13,28.83
2005-04-14,28.57
2005-04-15,26.15
2005-04-16,29.43
2005-04-17,30.71
2005-04-18,30.9
2005-04-19,30.86
2005-04-20,0.0
2005-04-21,0.0
2005-04-22,0.0
2005-04-23,0.0
2005-04-24,0.0
2005-04-25,0.0
2005-04-26,0.0
2005-04-27,0.0
2005-04-28,0.0
2005-04-29,0.0
2005-04-30,0.0
2005-05-01,0.0
2005-05-02,0.0
2005-05-03,0.0
2005-05-04,0.0
2005-05-05,0.0
2005-05-06,0.0
2005-05-07,0.0
2005-05-08,0.0
2005-05-09,0.0
2005-05-10,0.0
2005-05-11,0.0
2005-05-12,0.0
2005-05-13,0.0
2005-05-14,0.0
2005-05-15,0.0
2005-05-16,0.0
2005-05-17,0.0
2005-05-18,0.0
2005-05-19,0.0
2005-05-20,0.0
2005-05-21,0.0
2005-05-22,0.0
2005-05-23,0.0
2005-05-24,20.85
2005-05-25,61.84
2005-05-26,91.06
2005-05-27,89.6
2005-05-28,86.43
2005-05-29,84.45
2005-05-30,84.35
2005-05-31,86.17
2005-06-01,84.29
2005-06-02,84.65
2005-06-03,73.83
2005-06-04,68.96
2005-06-05,44.65
2005-06-06,44.83
2005-06-07,44.95
2005-06-08,44.97
2005-06-09,44.61
2005-06-10,44.29
2005-06-11,43.94
2005-06-12,43.58
2005-06-13,43.28
2005-06-14,34.39
2005-06-15,32.87
2005-06-16,34.73
2005-06-17,35.56
2005-06-18,36.49
2005-06-19,41.12
2005-06-20,43.08
2005-06-21,43.08
2005-06-22,43.42
2005-06-23,43.76
2005-06-24,43.84
2005-06-25,43.68
2005-06-26,43.64
2005-06-27,43.6
2005-06-28,43.38
2005-06-29,43.24
2005-06-30,43.68
2005-07-01,43.66
2005-07-02,43.42
2005-07-03,43.68
2005-07-04,37.62
2005-07-05,14.93
2005-07-06,10.14
2005-07-07,10.1
2005-07-08,10.06
2005-07-09,10.04
2005-07-10,9.96
2005-07-11,9.92
2005-07-12,9.29
2005-07-13,6.75
2005-07-14,5.68
2005-07-15,5.13
2005-07-16,5.09
2005-07-17,5.07
2005-07-18,2.85
2005-07-19,0.0
2005-07-20,0.0
2005-07-21,0.0
2005-07-22,0.0
2005-07-23,0.0
2005-07-24,0.0
2005-07-25,0.0
2005-07-26,0.0
2005-07-27,0.0
2005-07-28,0.0
2005-07-29,0.0
2005-07-30,0.0
2005-07-31,0.0
2005-08-01,0.0
2005-08-02,0.0
2005-08-03,0.0
2005-08-04,2.81
2005-08-05,9.11
2005-08-06,9.18
2005-08-07,9.18
2005-08-08,9.18
2005-08-09,9.15
2005-08-10,9.1
2005-08-11,8.97
2005-08-12,8.75
2005-08-13,8.72
2005-08-14,8.68
2005-08-15,8.65
2005-08-16,8.63
2005-08-17,8.57
2005-08-18,8.61
2005-08-19,8.63
2005-08-20,8.62
2005-08-21,8.6
2005-08-22,8.61
2005-08-23,8.63
2005-08-24,8.63
2005-08-25,8.63
2005-08-26,8.63
2005-08-27,8.62
2005-08-28,8.61
2005-08-29,8.57
2005-08-30,8.59
2005-08-31,8.61
2005-09-01,8.59
2005-09-02,8.64
2005-09-03,8.69
2005-09-04,8.74
2005-09-05,8.77
2005-09-06,8.81
2005-09-07,8.87
2005-09-08,8.95
2005-09-09,8.99
2005-09-10,9.29
2005-09-11,9.43
2005-09-12,9.48
2005-09-13,9.5
2005-09-14,9.51
2005-09-15,9.5
2005-09-16,9.49
2005-09-17,9.45
2005-09-18,9.41
2005-09-19,9.39
2005-09-20,9.37
2005-09-21,9.37
2005-09-22,9.29
2005-09-23,9.3
2005-09-24,9.31
2005-09-25,9.32
2005-09-26,9.29
2005-09-27,10.0
2005-09-28,14.79
2005-09-29,16.3
2005-09-30,16.27
2005-10-01,16.2
2005-10-02,16.15
2005-10-03,16.12
2005-10-04,16.06
2005-10-05,16.1
2005-10-06,16.2
2005-10-07,20.3
2005-10-08,21.72
2005-10-09,21.55
2005-10-10,21.42
2005-10-11,21.25
2005-10-12,21.12
2005-10-13,21.07
2005-10-14,20.88
2005-10-15,20.69
2005-10-16,20.53
2005-10-17,20.33
2005-10-18,20.16
2005-10-19,19.99
2005-10-20,19.8
2005-10-21,19.6
2005-10-22,19.38
2005-10-23,8.43
2005-10-24,0.0
2005-10-25,0.0
2005-10-26,0.0
2005-10-27,0.0
2005-10-28,0.0
2005-10-29,0.0
2005-10-30,0.0
2005-10-31,0.0
2005-11-01,0.0
2005-11-02,0.0
2005-11-03,0.0
2005-11-04,0.0
2005-11-05,0.0
2005-11-06,0.0
2005-11-07,0.0
2005-11-08,0.0
2005-11-09,0.0
2005-11-10,0.0
2005-11-11,0.0
2005-11-12,0.0
2005-11-13,0.0
2005-11-14,0.0
2005-11-15,0.0
2005-11-16,0.0
2005-11-17,0.0
2005-11-18,0.0
2005-11-19,0.0
2005-11-20,0.0
2005-11-21,0.0
2005-11-22,0.0
2005-11-23,0.0
2005-11-24,0.0
2005-11-25,0.0
2005-11-26,0.0
2005-11-27,0.0
2005-11-28,0.0
2005-11-29,0.0
2005-11-30,0.0
2005-12-01,0.0
2005-12-02,0.0
2005-12-03,0.0
2005-12-04,0.0
2005-12-05,0.0
2005-12-06,0.0
2005-12-07,0.0
2005-12-08,0.0
2005-12-09,0.0
2005-12-10,0.0
2005-12-11,0.0
2005-12-12,0.0
2005-12-13,0.0
2005-12-14,0.0
2005-12-15,0.0
2005-12-16,0.0
2005-12-17,0.0
2005-12-18,0.0
2005-12-19,0.0
2005-12-20,0.0
2005-12-21,0.0
2005-12-22,0.0
2005-12-23,0.0
2005-12-24,0.0
2005-12-25,0.0
2005-12-26,0.0
2005-12-27,0.0
2005-12-28,0.0
2005-12-29,0.0
2005-12-30,0.0
2005-12-31,0.0
2006-01-01,0.0
2006-01-02,0.0
2006-01-03,0.0
2006-01-04,0.0
2006-01-05,0.0
2006-01-06,0.0
2006-01-07,0.0
2006-01-08,0.0
2006-01-09,0.0
2006-01-10,0.0
2006-01-11,0.0
2006-01-12,0.0
2006-01-13,0.0
2006-01-14,0.0
2006-01-15,0.0
2006-01-16,0.0
2006-01-17,0.0
2006-01-18,0.0
2006-01-19,0.0
2006-01-20,0.0
2006-01-21,0.0
2006-01-22,0.0
2006-01-23,0.0
2006-01-24,0.0
2006-01-25,0.0
2006-01-26,0.0
2006-01-27,0.0
2006-01-28,0.0
2006-01-29,0.0
2006-01-30,0.0
2006-01-31,0.0
2006-02-01,0.0
2006-02-02,0.0
2006-02-03,0.0
2006-02-04,0.0
2006-02-05,0.0
2006-02-06,0.0
2006-02-07,0.0
2006-02-08,0.0
2006-02-09,0.0
2006-02-10,0.0
2006-02-11,0.0
2006-02-12,0.0
2006-02-13,0.0
2006-02-14,0.0
2006-02-15,0.0
2006-02-16,0.0
2006-02-17,0.0
2006-02-18,0.0
2006-02-19,0.0
2006-02-20,0.0
2006-02-21,0.0
2006-02-22,0.0
2006-02-23,0.0
2006-02-24,0.0
2006-02-25,0.0
2006-02-26,0.0
2006-02-27,0.0
2006-02-28,0.0
2006-03-01,0.0
2006-03-02,0.0
2006-03-03,0.0
2006-03-04,0.0
2006-03-05,0.0
2006-03-06,0.0
2006-03-07,0.0
2006-03-08,0.0
2006-03-09,0.0
2006-03-10,0.0
2006-03-11,0.0
2006-03-12,0.0
2006-03-13,0.0
2006-03-14,0.0
2006-03-15,0.0
2006-03-16,0.0
2006-03-17,0.0
2006-03-18,0.0
2006-03-19,0.0
2006-03-20,0.0
2006-03-21,0.0
2006-03-22,0.0
2006-03-23,0.0
2006-03-24,0.0
2006-03-25,0.0
2006-03-26,0.0
2006-03-27,0.0
2006-03-28,0.0
2006-03-29,0.0
2006-03-30,0.0
2006-03-31,0.0
2006-04-01,0.0
2006-04-02,0.0
2006-04-03,0.0
2006-04-04,0.0
2006-04-05,0.0
2006-04-06,0.0
2006-04-07,0.0
2006-04-08,0.0
2006-04-09,0.0
2006-04-10,0.0
2006-04-11,0.0
2006-04-12,0.0
2006-04-13,0.0
2006-04-14,0.0
2006-04-15,0.0
2006-04-16,0.0
2006-04-17,0.0
2006-04-18,0.0
2006-04-19,0.0
2006-04-20,0.0
2006-04-21,0.0
2006-04-22,0.0
2006-04-23,0.0
2006-04-24,0.0
2006-04-25,0.0
2006-04-26,0.0
2006-04-27,0.0
2006-04-28,2.44
2006-04-29,2.18
2006-04-30,2.25
2006-05-01,13.28
2006-05-02,16.58
2006-05-03,16.64
2006-05-04,16.67
2006-05-05,16.56
2006-05-06,16.6
2006-05-07,16.57
2006-05-08,16.58
2006-05-09,16.64
2006-05-10,16.67
2006-05-11,16.76
2006-05-12,16.89
2006-05-13,17.08
2006-05-14,17.31
2006-05-15,17.38
2006-05-16,41.52
2006-05-17,53.8
2006-05-18,54.27
2006-05-19,55.1
2006-05-20,57.19
2006-05-21,75.78
2006-05-22,79.12
2006-05-23,78.68
2006-05-24,78.64
2006-05-25,78.67
2006-05-26,78.73
2006-05-27,78.68
2006-05-28,84.1
2006-05-29,85.04
2006-05-30,78.09
2006-05-31,63.12
2006-06-01,51.89
2006-06-02,49.55
2006-06-03,50.12
2006-06-04,50.56
2006-06-05,54.81
2006-06-06,56.65
2006-06-07,56.57
2006-06-08,56.6
2006-06-09,56.63
2006-06-10,56.59
2006-06-11,56.4
2006-06-12,52.13
2006-06-13,41.89
2006-06-14,30.7
2006-06-15,21.61
2006-06-16,15.6
2006-06-17,6.87
2006-06-18,5.29
2006-06-19,5.21
2006-06-20,5.12
2006-06-21,5.08
2006-06-22,4.86
2006-06-23,3.7800000000000002
2006-06-24,3.29
2006-06-25,0.0
2006-06-26,0.0
2006-06-27,0.0
2006-06-28,0.0
2006-06-29,0.0
2006-06-30,0.0
2006-07-01,0.0
2006-07-02,0.0
2006-07-03,0.0
2006-07-04,0.0
2006-07-05,0.0
2006-07-06,0.0
2006-07-07,0.0
2006-07-08,0.0
2006-07-09,0.0
2006-07-10,0.0
2006-07-11,0.0
2006-07-12,0.0
2006-07-13,0.0
2006-07-14,0.0
2006-07-15,0.0
2006-07-16,0.0
2006-07-17,0.0
2006-07-18,0.0
2006-07-19,21.53
2006-07-20,21.21
2006-07-21,18.1
2006-07-22,18.08
2006-07-23,20.71
2006-07-24,21.72
2006-07-25,21.63
2006-07-26,21.46
2006-07-27,21.33
2006-07-28,21.18
2006-07-29,21.06
2006-07-30,20.94
2006-07-31,20.83
2006-08-01,20.78
2006-08-02,20.71
2006-08-03,20.61
2006-08-04,20.44
2006-08-05,20.3
2006-08-06,20.21
2006-08-07,20.24
2006-08-08,20.41
2006-08-09,20.25
2006-08-10,20.1
2006-08-11,19.95
2006-08-12,19.78
2006-08-13,19.66
2006-08-14,19.53
2006-08-15,19.42
2006-08-16,19.3
2006-08-17,19.15
2006-08-18,19.02
2006-08-19,18.88
2006-08-20,18.69
2006-08-21,18.56
2006-08-22,18.45
2006-08-23,12.57
2006-08-24,4.69
2006-08-25,2.37
2006-08-26,2.37
2006-08-27,2.38
2006-08-28,2.38
2006-08-29,2.39
2006-08-30,2.4
2006-08-31,2.4
2006-09-01,0.0
2006-09-02,0.0
2006-09-03,0.0
2006-09-04,0.0
2006-09-05,0.0
2006-09-06,0.0
2006-09-07,0.0
2006-09-08,0.0
2006-09-09,0.0
2006-09-10,0.0
2006-09-11,0.0
2006-09-12,0.0
2006-09-13,0.0
2006-09-14,0.0
2006-09-15,0.0
2006-09-16,0.0
2006-09-17,0.0
2006-09-18,0.0
2006-09-19,0.0
2006-09-20,0.0
2006-09-21,0.0
2006-09-22,0.0
2006-09-23,0.0
2006-09-24,0.0
2006-09-25,0.0
2006-09-26,0.0
2006-09-27,0.0
2006-09-28,0.0
2006-09-29,0.0
2006-09-30,0.0
2006-10-01,0.0
2006-10-02,0.0
2006-10-03,0.0
2006-10-04,0.0
2006-10-05,0.0
2006-10-06,0.0
2006-10-07,0.0
2006-10-08,0.0
2006-10-09,0.0
2006-10-10,0.0
2006-10-11,0.0
2006-10-12,0.0
2006-10-13,0.0
2006-10-14,0.0
2006-10-15,0.0
2006-10-16,9.55
2006-10-17,15.27
2006-10-18,15.25
2006-10-19,15.21
2006-10-20,15.2
2006-10-21,15.15
2006-10-22,15.04
2006-10-23,14.95
2006-10-24,14.85
2006-10-25,14.82
2006-10-26,14.76
2006-10-27,14.75
2006-10-28,14.69
2006-10-29,14.56
2006-10-30,14.51
2006-10-31,6.38
2006-11-01,0.0
2006-11-02,0.0
2006-11-03,0.0
2006-11-04,0.0
2006-11-05,0.0
2006-11-06,0.0
2006-11-07,0.0
2006-11-08,0.0
2006-11-09,0.0
2006-11-10,0.0
2006-11-11,0.0
2006-11-12,0.0
2006-11-13,0.0
2006-11-14,0.0
2006-11-15,0.0
2006-11-16,0.0
2006-11-17,0.0
2006-11-18,0.0
2006-11-19,0.0
2006-11-20,0.0
2006-11-21,0.0
2006-11-22,0.0
2006-11-23,0.0
2006-11-24,0.0
2006-11-25,0.0
2006-11-26,0.0
2006-11-27,0.0
2006-11-28,0.0
2006-11-29,0.0
2006-11-30,0.0
2006-12-01,0.0
2006-12-02,0.0
2006-12-03,0.0
2006-12-04,0.0
2006-12-05,0.0
2006-12-06,0.0
2006-12-07,0.0
2006-12-08,0.0
2006-12-09,0.0
2006-12-10,0.0
2006-12-11,0.0
2006-12-12,0.0
2006-12-13,0.0
2006-12-14,0.0
2006-12-15,0.0
2006-12-16,0.0
2006-12-17,0.0
2006-12-18,0.0
2006-12-19,0.0
2006-12-20,0.0
2006-12-21,0.0
2006-12-22,0.0
2006-12-23,0.0
2006-12-24,0.0
2006-12-25,0.0
2006-12-26,0.0
2006-12-27,0.0
2006-12-28,0.0
2006-12-29,0.0
2006-12-30,0.0
2006-12-31,0.0
2007-01-01,0.0
2007-01-02,0.0
2007-01-03,0.0
2007-01-04,0.0
2007-01-05,0.0
2007-01-06,0.0
2007-01-07,0.0
2007-01-08,0.0
2007-01-09,0.0
2007-01-10,0.0
2007-01-11,0.0
2007-01-12,0.0
2007-01-13,0.0
2007-01-14,0.0
2007-01-15,0.0
2007-01-16,0.0
2007-01-17,0.0
2007-01-18,0.0
2007-01-19,0.0
2007-01-20,0.0
2007-01-21,0.0
2007-01-22,0.0
2007-01-23,0.0
2007-01-24,0.0
2007-01-25,0.0
2007-01-26,0.0
2007-01-27,0.0
2007-01-28,0.0
2007-01-29,0.0
2007-01-30,0.0
2007-01-31,0.0
2007-02-01,0.0
2007-02-02,0.0
2007-02-03,0.0
2007-02-04,0.0
2007-02-05,0.0
2007-02-06,0.0
2007-02-07,0.0
2007-02-08,0.0
2007-02-09,0.0
2007-02-10,0.0
2007-02-11,0.0
2007-02-12,0.0
2007-02-13,0.0
2007-02-14,0.0
2007-02-15,0.0
2007-02-16,0.0
2007-02-17,0.0
2007-02-18,0.0
2007-02-19,0.0
2007-02-20,0.0
2007-02-21,0.0
2007-02-22,0.0
2007-02-23,0.0
2007-02-24,0.0
2007-02-25,0.0
2007-02-26,0.0
2007-02-27,0.0
2007-02-28,0.0
2007-03-01,0.0
2007-03-02,0.0
2007-03-03,0.0
2007-03-04,0.0
2007-03-05,0.0
2007-03-06,0.0
2007-03-07,0.0
2007-03-08,0.0
2007-03-09,0.0
2007-03-10,0.0
2007-03-11,0.0
2007-03-12,0.0
2007-03-13,0.0
2007-03-14,0.0
2007-03-15,0.0
2007-03-16,0.0
2007-03-17,0.0
2007-03-18,0.0
2007-03-19,0.0
2007-03-20,0.0
2007-03-21,0.0
2007-03-22,0.0
2007-03-23,0.0
2007-03-24,0.0
2007-03-25,0.0
2007-03-26,0.0
2007-03-27,0.0
2007-03-28,0.0
2007-03-29,0.0
2007-03-30,0.0
2007-03-31,0.0
2007-04-01,0.0
2007-04-02,0.0
2007-04-03,0.0
2007-04-04,0.0
2007-04-05,0.0
2007-04-06,0.0
2007-04-07,0.0
2007-04-08,0.0
2007-04-09,0.0
2007-04-10,0.0
2007-04-11,0.0
2007-04-12,0.0
2007-04-13,0.0
2007-04-14,0.0
2007-04-15,0.0
2007-04-16,0.0
2007-04-17,0.0
2007-04-18,0.0
2007-04-19,0.0
2007-04-20,0.0
2007-04-21,0.0
2007-04-22,0.0
2007-04-23,0.0
2007-04-24,0.0
2007-04-25,0.0
2007-04-26,0.0
2007-04-27,0.0
2007-04-28,0.0
2007-04-29,0.0
2007-04-30,0.0
2007-05-01,0.0
2007-05-02,13.44
2007-05-03,17.95
2007-05-04,18.11
2007-05-05,18.21
2007-05-06,18.23
2007-05-07,18.27
2007-05-08,18.27
2007-05-09,18.27
2007-05-10,18.27
2007-05-11,18.38
2007-05-12,18.53
2007-05-13,18.7
2007-05-14,18.65
2007-05-15,45.41
2007-05-16,55.51
2007-05-17,55.47
2007-05-18,55.47
2007-05-19,55.45
2007-05-20,55.37
2007-05-21,55.24
2007-05-22,54.93
2007-05-23,35.43
2007-05-24,25.22
2007-05-25,25.13
2007-05-26,15.23
2007-05-27,10.72
2007-05-28,16.19
2007-05-29,18.17
2007-05-30,18.06
2007-05-31,18.06
2007-06-01,17.94
2007-06-02,17.92
2007-06-03,17.86
2007-06-04,17.82
2007-06-05,17.81
2007-06-06,12.42
2007-06-07,9.96
2007-06-08,9.97
2007-06-09,9.96
2007-06-10,9.94
2007-06-11,12.91
2007-06-12,0.0
2007-06-13,0.0
2007-06-14,0.0
2007-06-15,0.0
2007-06-16,0.0
2007-06-17,0.0
2007-06-18,0.0
2007-06-19,0.0
2007-06-20,0.0
2007-06-21,0.0
2007-06-22,0.0
2007-06-23,0.0
2007-06-24,0.0
2007-06-25,0.0
2007-06-26,0.0
2007-06-27,0.0
2007-06-28,0.0
2007-06-29,16.08
2007-06-30,22.44
2007-07-01,22.42
2007-07-02,22.37
2007-07-03,22.29
2007-07-04,22.18
2007-07-05,22.0
2007-07-06,21.92
2007-07-07,21.82
2007-07-08,21.68
2007-07-09,21.58
2007-07-10,21.4
2007-07-11,21.29
2007-07-12,21.15
2007-07-13,21.02
2007-07-14,20.88
2007-07-15,20.75
2007-07-16,20.6
2007-07-17,20.51
2007-07-18,20.41
2007-07-19,20.35
2007-07-20,20.26
2007-07-21,20.15
2007-07-22,20.03
2007-07-23,19.96
2007-07-24,19.88
2007-07-25,12.52
2007-07-26,9.29
2007-07-27,9.31
2007-07-28,9.38
2007-07-29,9.41
2007-07-30,9.49
2007-07-31,9.65
2007-08-01,9.71
2007-08-02,9.78
2007-08-03,9.82
2007-08-04,9.85
2007-08-05,9.94
2007-08-06,9.97
2007-08-07,9.94
2007-08-08,9.84
2007-08-09,9.66
2007-08-10,9.49
2007-08-11,9.25
2007-08-12,9.02
2007-08-13,8.83
2007-08-14,8.68
2007-08-15,8.58
2007-08-16,8.57
2007-08-17,8.53
2007-08-18,8.49
2007-08-19,8.48
2007-08-20,8.47
2007-08-21,8.44
2007-08-22,8.38
2007-08-23,4.22
2007-08-24,0.0
2007-08-25,0.0
2007-08-26,0.0
2007-08-27,0.0
2007-08-28,0.0
2007-08-29,0.0
2007-08-30,0.0
2007-08-31,0.0
2007-09-01,0.0
2007-09-02,0.0
2007-09-03,0.0
2007-09-04,0.0
2007-09-05,0.0
2007-09-06,0.0
2007-09-07,0.0
2007-09-08,0.0
2007-09-09,0.0
2007-09-10,0.0
2007-09-11,0.0
2007-09-12,0.0
2007-09-13,0.0
2007-09-14,0.0
2007-09-15,0.0
2007-09-16,0.0
2007-09-17,0.0
2007-09-18,0.0
2007-09-19,0.0
2007-09-20,0.0
2007-09-21,0.0
2007-09-22,0.0
2007-09-23,0.0
2007-09-24,0.0
2007-09-25,0.0
2007-09-26,0.0
2007-09-27,0.0
2007-09-28,0.0
2007-09-29,0.0
2007-09-30,0.0
2007-10-01,0.0
2007-10-02,0.0
2007-10-03,0.0
2007-10-04,0.0
2007-10-05,0.0
2007-10-06,0.0
2007-10-07,0.0
2007-10-08,0.0
2007-10-09,0.0
2007-10-10,0.0
2007-10-11,0.0
2007-10-12,0.0
2007-10-13,0.0
2007-10-14,0.0
2007-10-15,0.0
2007-10-16,0.0
2007-10-17,0.0
2007-10-18,0.0
2007-10-19,0.0
2007-10-20,0.0
2007-10-21,0.0
2007-10-22,0.0
2007-10-23,0.0
2007-10-24,0.0
2007-10-25,0.0
2007-10-26,0.0
2007-10-27,0.0
2007-10-28,0.0
2007-10-29,0.0
2007-10-30,0.0
2007-10-31,0.0
2007-11-01,0.0
2007-11-02,0.0
2007-11-03,0.0
2007-11-04,0.0
2007-11-05,0.0
2007-11-06,0.0
2007-11-07,0.0
2007-11-08,0.0
2007-11-09,0.0
2007-11-10,0.0
2007-11-11,0.0
2007-11-12,0.0
2007-11-13,0.0
2007-11-14,0.0
2007-11-15,0.0
2007-11-16,0.0
2007-11-17,0.0
2007-11-18,0.0
2007-11-19,0.0
2007-11-20,0.0
2007-11-21,0.0
2007-11-22,0.0
2007-11-23,0.0
2007-11-24,0.0
2007-11-25,0.0
2007-11-26,0.0
2007-11-27,0.0
2007-11-28,0.0
2007-11-29,0.0
2007-11-30,0.0
2007-12-01,0.0
2007-12-02,0.0
2007-12-03,0.0
2007-12-04,0.0
2007-12-05,0.0
2007-12-06,0.0
2007-12-07,0.0
2007-12-08,0.0
2007-12-09,0.0
2007-12-10,0.0
2007-12-11,0.0
2007-12-12,0.0
2007-12-13,0.0
2007-12-14,0.0
2007-12-15,0.0
2007-12-16,0.0
2007-12-17,0.0
2007-12-18,0.0
2007-12-19,0.0
2007-12-20,0.0
2007-12-21,0.0
2007-12-22,0.0
2007-12-23,0.0
2007-12-24,0.0
2007-12-25,0.0